{"data":{"norad_id":37741,"intl_designator":"2011-033C","name":"GLOBALSTAR M091","alt_names":[],"object_type":"PAYLOAD","status":"ACTIVE","operator":null,"country":"GLOB","launch_date":"2011-07-13","launch_site_code":"TYMSC","launch_vehicle":null,"mission":null,"orbit_class":"UNKNOWN","rcs_meters":4.932,"size_class":null,"mass_kg":null,"dimensions":null,"purposes":["comms"],"wikipedia_slug":null,"has_3d_model":false,"image_url":null,"decayed_at":null,"tle_current":{"epoch":"2026-09-20T03:16:53.071968Z","epoch_age_seconds":45810,"freshness":"FRESH","line1":"1 37741U 11033C   26263.13672537 -.00000094  00000+0  53887-4 0  9991","line2":"2 37741  52.0008 312.8507 0000496 116.7134 270.4362 12.62264869701274","mean_motion":12.62264869,"eccentricity":4.96e-5,"inclination_deg":52.0008,"raan_deg":312.8507,"arg_perigee_deg":116.7134,"mean_anomaly_deg":270.4362,"bstar":5.3887e-5,"rev_number":70127,"period_min":114.08065259242,"perigee_km":1413.2235663244,"apogee_km":1413.9965076304,"semimajor_km":7791.7470369774,"source":"CELESTRAK","updated_at":"2026-09-20T09:00:45.038535Z"}}}